Showing default

OPS 9334 (DATS), 2865

Orbit data source: Space-Track

OPS 9334 (DATS), 2865 is a payload satellite owned by SAMSO (US) in GEO that was launched on Sat, 01 Jul 1967 UTC via a TITAN IIIC launch vehicle from the Air Force Eastern Test Range (AFETR). Payload-class satellites include a variety of spacecraft equipped with specific instruments for various scientific and technological missions. These include communications satellites like Starlink; space stations such as the ISS; scientific satellites like the Hubble; Earth observation satellites from companies like Planet Labs, Umbra, and HawkEye 360; GPS; miniature CubeSats for education and research; and military/defense satellites.

Not visible in the next 10 days
Identifier
2865, 1967-066D
Orbit
GEO
Country
Flag of USUS
Related business
Manufacturer
Philco-Ford WDL
Mission
Non-operational spacecraft
Bus & Motor
IDCSP, Unknown motor
Mass
68 kg wet, 68 kg dry
Launch date (UTC)
1967-07-01 (59 years ago)
Launch vehicle
TITAN IIIC
Launch site
Air Force Eastern Test Range (AFETR)
Object type
Payload
Rocket body
Debris
Shape & HBR
Unknown
Radar Cross Section
Medium (>0.1 m² and <1 m²)

Expand to show TLE details & history
Last TLE update: 10 hours ago

TLE from 10 hours ago
0 OPS 9334 (DATS)
1  2865U 67066D   26129.52368838 -.00000070  00000-0  00000+0 0  9996
2  2865   2.6333  96.7068 0054844 225.0613 214.3941  1.09624314129747
Epoch: 2026-05-09T12:34Z
TLE epoch observation values (Epoch: 2026-05-09T12:34:06.676Z)
Latitude
2.57273°
Longitude
119.92512°
Altitude
33,531.756 km
Speed
3.153 km/s
True Right ascension
11h 43m 10s
True Declination
2° 34' 12"
Sunlit
Object was in daylight at epoch
Visualization orbit readout
Latitude
Unknown
Longitude
Unknown
Altitude
Unknown
Speed
Unknown
Apparent Right ascension
Unknown
Apparent Declination
Unknown
Sunlit
N/A
Visualization observer readout
Local Sidereal Time
07:08:37
Azimuth
Unknown
Elevation
Unknown
Doppler factor
Unknown
Orbital elements
Apogee altitude
33,571.999 km
Perigee altitude
33,136.184 km
Semi-major axis
39,732.229 km
Eccentricity
0.00548
Inclination
2.6333°
RAAN
96.7068°
Arg. of periapsis
225.0613°
True anomaly
214.04109°
Mean anomaly
214.3941°
Eccentric anomaly
214.2174°
Mean motion
0.27405 °/min
Orbital period
1,313.63 mins
BSTAR
0
Loading maneuver chart data...
Computing Atmospheric mass density...
Loading historical data...
Loading historical data...
Loading historical data...
Loading historical data...
Loading historical data...
Loading historical data...
Loading historical data...

Documentation

Showing up to 5 results
|